Regional Weather Roundup
Issued by NWS Sterling, VA

Home | Current Version | Previous Version | Text Only | Print | Product List | Glossary On
Versions: 1 2 3 4 5 6 7 8 9 10 11 12 13 14 15 16 17 18 19 20 21 22 23 24 25 26 27 28 29 30 31 32 33 34 35 36 37 38 39 40 41 42 43 44 45 46 47 48 49 50
000
ASUS41 KLWX 011210
RWRLWX

REGIONAL WEATHER ROUNDUP
NATIONAL WEATHER SERVICE BALTIMORE MD/WASHINGTON DC
700 AM EST SUN MAR 01 2015

Note: "FAIR" indicates few or no clouds below 12,000 feet
with no significant weather and/or obstructions to visibility.
 TC=TEMPERATURE CELSIUS

 * =Non NWS site. Station does not report precipitation (e.g. rain,
    snow, etc.), thunder, or fog.

DCZ001-MDZ009-015-VAZ040>042-051-053>054-011300-
WASHINGTON METRO

CITY           SKY/WX    TMP DP  RH WIND       PRES   REMARKS
WASHINGTON NAT CLOUDY    28  15  58 S5        30.67R
DULLES         CLOUDY    24  12  60 SE3       30.63F
ANDREWS AFB    CLOUDY    23  12  63 S5        30.68S
FT BELVOIR     CLOUDY    26  16  67 E1        30.66F
QUANTICO       CLOUDY    27  15  61 MISG      30.68S
COLLEGE PARK*  CLOUDY    27  18  69 CALM      30.66F
LEESBURG*      CLOUDY    27  18  69 CALM      30.63F
GAITHERSBURG*  MOCLDY    21  10  63 CALM      30.65F

$$

MDZ006>007-011-014-011300-
BALTIMORE METRO

CITY           SKY/WX    TMP DP  RH WIND       PRES   REMARKS
BWI AIRPORT    CLOUDY    22  12  65 CALM      30.65S
MD SCIENCE CTR   N/A      1  52 100 MISG      30.68R
MARTIN STATE   MOCLDY    21  14  73 CALM      30.69R
ANNAPOLIS      CLOUDY    24  19  81 NW6       30.66R
FORT MEADE*    CLOUDY    21  14  73 CALM      30.67F

$$

MDZ012-015-019>023-011300-
MARYLAND EASTERN SHORE

CITY           SKY/WX    TMP DP  RH WIND       PRES   REMARKS
OCEAN CITY     MOCLDY    21  18  88 E3        30.66F
SALISBURY      CLOUDY    24  14  65 E3        30.65F
BAY BRIDGE AP*   N/A     25  18  74 CALM      30.67R
CAMBRIDGE*     MOCLDY    27  16  63 SE3       30.64F
EASTON*        MOCLDY    25  18  74 CALM      30.68F

$$

MDZ017>025-011300-
SOUTHERN MARYLAND

CITY           SKY/WX    TMP DP  RH WIND       PRES   REMARKS
PATUXENT RIVER CLOUDY    28  15  58 SE6       30.66R
ST INIGOES     CLOUDY    26  18  71 CALM      30.65R
LEONARDTOWN*   CLOUDY    27  19  74 CALM      30.67R

$$

MDZ003>005-011300-
NORTH CENTRAL MARYLAND

CITY           SKY/WX    TMP DP  RH WIND       PRES   REMARKS
FREDERICK*     CLOUDY    23  10  58 CALM      30.66F
HAGERSTOWN APT LGT SNOW  22  18  85 S8        30.58F VSB 3/4 WCI  12
WESTMINSTER*   MOCLDY    21   9  58 S3        30.60S

$$

MDZ501>502-011300-
WESTERN MARYLAND

CITY           SKY/WX    TMP DP  RH WIND       PRES   REMARKS
OAKLAND*         N/A     21 N/A N/A S8        30.36F FOG     WCI  12
CUMBERLAND*    CLOUDY    27  14  59 CALM      30.58F

$$

VAZ025>031-011300-
SHENANDOAH VALLEY

CITY           SKY/WX    TMP DP  RH WIND       PRES   REMARKS
WINCHESTER*    CLOUDY    27  10  50 CALM      30.56F
FRONT ROYAL*   CLOUDY    23  14  68 CALM      30.56S
LURAY*         CLOUDY    30  18  59 S5        30.55F
NEW MARKET*    CLOUDY    24  17  73 CALM      30.53F
STAUNTON*      CLOUDY    27  13  56 S3        30.55F
WAYNESBORO*    CLOUDY    25  13  60 CALM      30.53S

$$

WVZ021-048>050-054>055-011300-
EASTERN WEST VIRGINIA PANHANDLE

CITY           SKY/WX    TMP DP  RH WIND       PRES   REMARKS
MARTINSBURG    LGT SNOW  25  13  60 CALM      30.58F
PETERSBURG*    NOT AVBL

$$

VAZ036>039-050-011300-
CENTRAL FOOTHILLS

CITY           SKY/WX    TMP DP  RH WIND       PRES   REMARKS
CHARLOTTESVILL CLOUDY    25  15  66 CALM      30.60S
CULPEPER*      CLOUDY    27  18  69 CALM      30.63F
ORANGE*        CLOUDY    28  18  64 CALM      30.63F
GORDONSVILLE*  CLOUDY    25  15  66 CALM      30.61F
WARRENTON*     CLOUDY    27  19  71 CALM      30.63S

$$

VAZ055>057-011300-
NORTH AND CENTRAL PIEDMONT

CITY           SKY/WX    TMP DP  RH WIND       PRES   REMARKS
FREDERICKSBRG* CLOUDY    27  17  67 CALM      30.66R
STAFFORD*      CLOUDY    25  13  62 CALM      30.70R

$$

NCZ024-NYZ072-PAZ021-071-VAZ022-071-011300-
OTHER REGIONAL OBSERVATIONS

CITY           SKY/WX    TMP DP  RH WIND       PRES   REMARKS
NEW YORK CITY  CLOUDY    27  -1  30 CALM      30.68F
PHILADELPHIA   CLOUDY    24  13  62 CALM      30.67F
PITTSBURGH     LGT SNOW  24  22  91 SE6       30.37F VSB 1
ROANOKE        CLOUDY    28  14  55 S3        30.58F
RICHMOND       CLOUDY    27  17  66 CALM      30.64F
RALEIGH        FRZ RAIN  29  24  82 NE5       30.60F FOG

$$

ANZ530>537-011300-
MARINE OBSERVATIONS

STATION/POSITION TIME  TEMP    WIND        PRES
                       AIR SEA DIR/SP/G
                 (UTC) (F)     (DEG/KT/KT) (MB)
THOMAS PT LIGHT  1200   26 31  110/  2/  3 1039.2R
BALT KEY BRIDGE  1100   23      40/  2/  3 1038.4S
COVE POINT       1100   25     140/  9/ 10 1037.7F
LEWISETTA        1100   24 33              1037.9F
SOLOMONS ISLAND  1100      33                N/A

$$




USA.gov is the U.S. government's official web portal to all federal, state and local government web resources and services.